Roseburg, OR

4:39 PM PDT on September 21, 2017 (GMT -0700)
Roseburg Regional

Weather History for KRBG - October, 2012

Change the Weather History Date:

Sunday, October 7, 2012

  Actual Average Record
Temperature  
Mean Temperature 61 °F 58 °F  
Max Temperature 81 °F 71 °F 92 °F (1936)
Min Temperature 40 °F 46 °F 37 °F (2009)
Degree Days  
Heating Degree Days 4 7  
Month to date heating degree days 33 41  
Since 1 July heating degree days 59 130  
Cooling Degree Days 0 0  
Month to date cooling degree days 1 2  
Year to date cooling degree days 494 478  
Growing Degree Days 10 (Base 50)    
Moisture  
Dew Point 36 °F    
Average Humidity 50    
Maximum Humidity 85    
Minimum Humidity 15    
Precipitation  
Precipitation 0.00 in 0.05 in 0.87 in (1962)
Month to date precipitation 0.00 0.37  
Year to date precipitation 23.34 20.98  
Sea Level Pressure  
Sea Level Pressure 29.97 in    
Wind  
Wind Speed 1 mph (North)    
Max Wind Speed 12 mph    
Max Gust Speed 14 mph    
Visibility 10 miles    
Events      
T = Trace of Precipitation, MM = Missing Value Source: NWS Daily Summary

Daily Weather History Graph

Daily Weather History Graph

Search for Another Location

Airport or City:

Trip Planner

Search our weather history database for the weather conditions in past years. The results will help you decide how hot, cold, wet, or windy it might be!

Date:

Astronomy

Oct. 07, 2012 Rise Set
Actual Time 7:18 AM PDT 6:42 PM PDT
Civil Twilight 6:49 AM PDT 7:11 PM PDT
Nautical Twilight 6:16 AM PDT 7:44 PM PDT
Astronomical Twilight 5:43 AM PDT 8:17 PM PDT
Moon 11:53 PM PDT (10/7) 2:06 PM PDT (10/7)
Length of Visible Light 12h 21m
Length of Day
11h 24m
Waning Gibbous, 55% of the Moon is Illuminated
Oct 7
Waning Gibbous
Oct 8
Last Quarter
Oct 15
New
Oct 21
First Quarter
Oct 29
Full

Hourly Weather History & Observations

Time (PDT) Temp. Dew Point Humidity Pressure Visibility Wind Dir Wind Speed Gust Speed Precip Events Conditions
12:53 AM 48.9 °F 37.0 °F 64% 30.01 in 10.0 mi Calm Calm - N/A   Clear
1:53 AM 46.9 °F 37.0 °F 68% 30.01 in 10.0 mi Calm Calm - N/A   Clear
2:53 AM 46.0 °F 37.0 °F 71% 30.01 in 10.0 mi Calm Calm - N/A   Clear
3:53 AM 44.1 °F 37.0 °F 76% 30.01 in 10.0 mi Calm Calm - N/A   Clear
4:53 AM 43.0 °F 36.0 °F 76% 30.02 in 10.0 mi Calm Calm - N/A   Clear
5:53 AM 42.1 °F 36.0 °F 79% 30.02 in 10.0 mi Calm Calm - N/A   Clear
6:53 AM 39.9 °F 35.1 °F 83% 30.03 in 10.0 mi Calm Calm - N/A   Clear
7:53 AM 41.0 °F 36.0 °F 82% 30.04 in 10.0 mi Calm Calm - N/A   Clear
8:53 AM 44.1 °F 37.0 °F 76% 30.05 in 10.0 mi Calm Calm - N/A   Clear
9:53 AM 50.0 °F 39.0 °F 66% 30.04 in 10.0 mi Calm Calm - N/A   Clear
10:53 AM 57.0 °F 39.9 °F 53% 30.03 in 10.0 mi Calm Calm - N/A   Clear
11:53 AM 63.0 °F 39.9 °F 43% 30.00 in 10.0 mi Calm Calm - N/A   Clear
12:53 PM 66.9 °F 37.9 °F 34% 29.97 in 10.0 mi Calm Calm - N/A   Clear
1:53 PM 72.0 °F 37.9 °F 29% 29.94 in 10.0 mi Calm Calm - N/A   Clear
2:53 PM 77.0 °F 30.9 °F 19% 29.91 in 10.0 mi North 5.8 mph - N/A   Clear
3:53 PM 80.1 °F 33.1 °F 18% 29.89 in 10.0 mi North 5.8 mph - N/A   Clear
4:53 PM 81.0 °F 30.9 °F 16% 29.88 in 10.0 mi North 8.1 mph - N/A   Clear
5:53 PM 79.0 °F 27.0 °F 15% 29.88 in 10.0 mi North 5.8 mph - N/A   Clear
6:53 PM 73.0 °F 28.9 °F 20% 29.89 in 10.0 mi North 3.5 mph - N/A   Clear
7:53 PM 64.9 °F 33.1 °F 31% 29.91 in 10.0 mi Calm Calm - N/A   Clear
8:53 PM 60.1 °F 35.1 °F 39% 29.92 in 10.0 mi Calm Calm - N/A   Clear
9:53 PM 57.0 °F 37.9 °F 49% 29.93 in 10.0 mi Calm Calm - N/A   Clear
10:53 PM 55.0 °F 37.9 °F 53% 29.94 in 10.0 mi Calm Calm - N/A   Clear
11:53 PM 52.0 °F 39.0 °F 61% 29.94 in 10.0 mi Calm Calm - N/A   Clear